New Roads False River Regiona, LA

5:43 AM CDT on September 15, 2019 (GMT -0500)
False River

Weather History for KHZR - July, 2019

Change the Weather History Date:

Sunday, July 14, 2019

  Actual Average (KBTR) Record (KBTR)
Temperature  
Mean Temperature 74 °F -  
Max Temperature 78 °F 91 °F 99 °F (1932)
Min Temperature 71 °F 72 °F 62 °F (1897)
Cooling Degree Days 10    
Growing Degree Days 24 (Base 50)    
Moisture  
Dew Point 72 °F    
Average Humidity 90    
Maximum Humidity 100    
Minimum Humidity 78    
Precipitation  
Precipitation 1.17 in - - ()
Sea Level Pressure  
Sea Level Pressure 29.93 in    
Wind  
Wind Speed 15 mph (SSE)    
Max Wind Speed 22 mph    
Max Gust Speed 36 mph    
Visibility 8 miles    
Events Rain    
Averages and records for this station are not official NWS values.
T = Trace of Precipitation, MM = Missing Value Source: NWS Daily Summary

Daily Weather History Graph

Daily Weather History Graph

Search for Another Location

Airport or City:

Astronomy

Jul. 14, 2019 Rise Set
Actual Time 6:12 AM CDT 8:10 PM CDT
Civil Twilight 5:45 AM CDT 8:37 PM CDT
Nautical Twilight 5:12 AM CDT 9:10 PM CDT
Astronomical Twilight 4:37 AM CDT 9:45 PM CDT
Moon 6:32 PM CDT (7/14) 4:13 AM CDT (7/14)
Length of Visible Light 14h 52m
Length of Day
13h 57m
Waxing Gibbous, 95% of the Moon is Illuminated
Jul 14
Waxing Gibbous
Jul 16
Full
Jul 24
Last Quarter
Jul 31
New
Aug 7
First Quarter

Hourly Weather History & Observations

Time (CDT) Temp. Dew Point Humidity Pressure Visibility Wind Dir Wind Speed Gust Speed Precip Events Conditions
12:14 AM 73.4 °F 71.6 °F 94% 29.87 in 7.0 mi SSE 15.0 mph 29.9 mph 0.04 in Rain Light Rain
1:14 AM 73.4 °F 71.6 °F 94% 29.85 in 7.0 mi SE 19.6 mph 34.5 mph 0.03 in Rain Light Rain
1:35 AM 73.4 °F 71.6 °F 94% 29.86 in 5.0 mi SE 11.5 mph 23.0 mph 0.07 in Rain Rain
1:54 AM 73.4 °F 73.4 °F 100% 29.86 in 5.0 mi SE 15.0 mph 21.9 mph 0.10 in Rain Rain
2:14 AM 73.4 °F 71.6 °F 94% 29.87 in 5.0 mi SSE 21.9 mph 33.4 mph 0.03 in Rain Light Rain
2:35 AM 71.6 °F 71.6 °F 100% 29.88 in 3.0 mi SSE 20.7 mph 29.9 mph 0.07 in Rain Rain
2:55 AM 71.6 °F 71.6 °F 100% 29.87 in 4.0 mi SE 17.3 mph 28.8 mph 0.11 in Rain Rain
3:14 AM 73.4 °F 69.8 °F 88% 29.87 in 10.0 mi SE 18.4 mph 29.9 mph 0.03 in Rain Light Rain
4:17 AM 75.2 °F 71.6 °F 89% 29.87 in 10.0 mi SE 15.0 mph 23.0 mph 0.03 in   Overcast
4:34 AM 75.2 °F 71.6 °F 89% 29.88 in 10.0 mi SE 15.0 mph 27.6 mph 0.04 in   Overcast
4:54 AM 75.2 °F 71.6 °F 89% 29.88 in 10.0 mi SSE 11.5 mph - 0.05 in Rain Light Rain
5:14 AM 75.2 °F 71.6 °F 89% 29.88 in 7.0 mi SE 16.1 mph 24.2 mph 0.01 in Rain Light Rain
5:34 AM 75.2 °F 73.4 °F 94% 29.89 in 4.0 mi SSE 15.0 mph 25.3 mph 0.04 in Rain Heavy Rain
5:54 AM 75.2 °F 73.4 °F 94% 29.87 in 10.0 mi SE 9.2 mph 18.4 mph 0.08 in Rain Light Rain
6:14 AM 75.2 °F 75.2 °F 100% 29.88 in 7.0 mi SSE 10.4 mph - 0.03 in   Overcast
6:34 AM 77.0 °F 75.2 °F 94% 29.89 in 7.0 mi SE 9.2 mph 16.1 mph 0.07 in   Overcast
6:54 AM 77.0 °F 75.2 °F 94% 29.89 in 7.0 mi SE 10.4 mph 17.3 mph 0.10 in   Overcast
7:14 AM 78.8 °F 75.2 °F 89% 29.89 in 7.0 mi SE 10.4 mph - 0.02 in   Overcast
7:35 AM 78.8 °F 75.2 °F 89% 29.90 in 7.0 mi SE 10.4 mph 17.3 mph 0.05 in   Overcast
7:55 AM 78.8 °F 75.2 °F 89% 29.91 in 7.0 mi SSE 13.8 mph 19.6 mph 0.06 in   Overcast
8:14 AM 78.8 °F 75.2 °F 89% 29.92 in 7.0 mi SSE 13.8 mph 18.4 mph N/A   Overcast
8:34 AM 78.8 °F 75.2 °F 89% 29.94 in 4.0 mi SSE 17.3 mph 25.3 mph 0.02 in Rain Rain
8:56 AM 73.4 °F 71.6 °F 94% 29.97 in 1.2 mi SSW 20.7 mph 35.7 mph 0.04 in Rain Heavy Rain
9:15 AM 73.4 °F 71.6 °F 94% 29.97 in 1.8 mi South 18.4 mph 27.6 mph 0.03 in Rain Heavy Rain
9:34 AM 73.4 °F 71.6 °F 94% 29.96 in 5.0 mi South 15.0 mph 26.5 mph 0.07 in Rain Light Rain
10:15 AM 73.4 °F 71.6 °F 94% 29.96 in 4.0 mi South 19.6 mph 33.4 mph 0.04 in Rain Light Rain
10:56 AM 73.4 °F 71.6 °F 94% 29.97 in 10.0 mi South 13.8 mph 21.9 mph 0.11 in Rain Light Rain
11:14 AM 73.4 °F 71.6 °F 94% 29.97 in 10.0 mi SSE 13.8 mph 23.0 mph 0.03 in   Drizzle
11:34 AM 73.4 °F 69.8 °F 88% 29.97 in 10.0 mi South 17.3 mph 25.3 mph 0.06 in Rain Rain
11:54 AM 73.4 °F 69.8 °F 88% 29.95 in 10.0 mi SSE 16.1 mph 24.2 mph 0.09 in Rain Light Rain
12:14 PM 73.4 °F 69.8 °F 88% 29.96 in 10.0 mi SSE 15.0 mph 24.2 mph 0.03 in   Overcast
12:34 PM 73.4 °F 69.8 °F 88% 29.96 in 10.0 mi SSE 11.5 mph 19.6 mph 0.06 in Rain Light Rain
12:55 PM 75.2 °F 71.6 °F 89% 29.96 in 10.0 mi SSE 11.5 mph - 0.09 in   Overcast
1:36 PM 77.0 °F 71.6 °F 83% 29.95 in 10.0 mi South 11.5 mph 21.9 mph 0.06 in   Overcast
1:54 PM 77.0 °F 69.8 °F 78% 29.94 in 10.0 mi SSE 15.0 mph 20.7 mph 0.08 in   Overcast
2:14 PM 75.2 °F 69.8 °F 83% 29.95 in 10.0 mi South 16.1 mph 20.7 mph 0.02 in   Overcast
2:35 PM 75.2 °F 71.6 °F 89% 29.95 in 7.0 mi South 15.0 mph 29.9 mph 0.04 in Rain Light Rain
2:54 PM 75.2 °F 71.6 °F 89% 29.95 in 10.0 mi South 16.1 mph 23.0 mph 0.06 in   Light Drizzle
3:14 PM 77.0 °F 71.6 °F 83% 29.94 in 10.0 mi South 17.3 mph 25.3 mph 0.01 in   Overcast
3:35 PM 77.0 °F 71.6 °F 83% 29.94 in 10.0 mi SSE 16.1 mph 26.5 mph 0.03 in   Overcast
3:57 PM 77.0 °F 71.6 °F 83% 29.94 in 10.0 mi SSE 13.8 mph 21.9 mph 0.05 in   Overcast
4:14 PM 77.0 °F 71.6 °F 83% 29.94 in 10.0 mi SSE 15.0 mph 20.7 mph 0.01 in   Mostly Cloudy
4:34 PM 77.0 °F 71.6 °F 83% 29.94 in 10.0 mi SSE 15.0 mph 23.0 mph 0.02 in   Overcast
5:14 PM 75.2 °F 71.6 °F 89% 29.94 in 7.0 mi SSE 11.5 mph 17.3 mph 0.01 in   Drizzle
5:34 PM 73.4 °F 71.6 °F 94% 29.95 in 4.0 mi SSE 11.5 mph 17.3 mph 0.01 in Rain Rain
5:55 PM 73.4 °F 71.6 °F 94% 29.94 in 10.0 mi SSE 12.7 mph 17.3 mph 0.02 in   Overcast
6:14 PM 73.4 °F 71.6 °F 94% 29.94 in 10.0 mi SSE 13.8 mph 19.6 mph 0.01 in   Overcast
6:34 PM 75.2 °F 71.6 °F 89% 29.94 in 10.0 mi SSE 12.7 mph 21.9 mph 0.01 in   Overcast
6:54 PM 75.2 °F 71.6 °F 89% 29.94 in 10.0 mi SSE 12.7 mph 20.7 mph 0.01 in   Overcast
7:14 PM 75.2 °F 71.6 °F 89% 29.93 in 10.0 mi SE 12.7 mph 19.6 mph N/A   Overcast
7:34 PM 75.2 °F 71.6 °F 89% 29.93 in 10.0 mi SE 9.2 mph - N/A   Overcast
7:54 PM 75.2 °F 69.8 °F 83% 29.94 in 10.0 mi SSE 11.5 mph - N/A Rain Rain
8:15 PM 73.4 °F 69.8 °F 88% 29.94 in 10.0 mi SSE 10.4 mph - N/A   Overcast
8:34 PM 73.4 °F 69.8 °F 88% 29.94 in 10.0 mi SE 8.1 mph - N/A   Overcast
8:54 PM 73.4 °F 69.8 °F 88% 29.94 in 10.0 mi SE 10.4 mph - N/A   Overcast
9:14 PM 75.2 °F 71.6 °F 89% 29.94 in 10.0 mi SSE 9.2 mph 16.1 mph N/A   Overcast
9:34 PM 75.2 °F 71.6 °F 89% 29.94 in 10.0 mi SSE 10.4 mph - N/A   Overcast
10:15 PM 75.2 °F 71.6 °F 89% 29.96 in 10.0 mi SSE 11.5 mph 18.4 mph N/A   Overcast
10:34 PM 75.2 °F 71.6 °F 89% 29.96 in 10.0 mi SSE 9.2 mph 16.1 mph N/A   Overcast
10:54 PM 75.2 °F 71.6 °F 89% 29.96 in 10.0 mi SSE 12.7 mph 20.7 mph N/A   Overcast
11:15 PM 75.2 °F 71.6 °F 89% 29.97 in 10.0 mi SSE 10.4 mph 16.1 mph N/A   Overcast
11:36 PM 75.2 °F 71.6 °F 89% 29.97 in 10.0 mi SSE 13.8 mph - N/A   Overcast
11:54 PM 75.2 °F 71.6 °F 89% 29.96 in 10.0 mi SSE 9.2 mph - N/A   Overcast